Погода в Констанце

Румыния     44°08′59″N   28°37′56″E
темп.,
°C
ветер,
м/с
пор.,
м/с
влажн.,
%
обл.,
%
осадки,
мм/ч
давл.,
гПа
погр.,
м
27 сентября, пн
пн2700:00+19юз33750 0.0 1020117
03:00+19ссз22730 0.0 1020120
06:00+19ссв55681 0.0 1019294
09:00+19ссв66700 0.0 1020412
12:00+19св66700 0.0 1020504
15:00+19всв65712 0.0 1019614
18:00+19в77711 0.0 1019631
21:00+18в677112 0.0 1019597
28 сентября, вт
вт2800:00+18в56662 0.0 1020665
03:00+18всв55570 0.0 1020737
06:00+18всв66590 0.0 1020849
09:00+18всв77593 0.0 10201062
12:00+18всв665989 0.0 10211304
15:00+17всв6661100 0.0 1021992
18:00+17всв6663100 0.1 1022998
21:00+17всв7862100 0.1 10231045
29 сентября, ср
ср2900:00+17всв895978 0.0 10241231
03:00+17св785932 0.0 10241445
06:00+17св7860100 0.0 10241420
09:00+17св896699 0.3 10251214
12:00+17всв8859100 0.4 10261456
15:00+18всв885411 0.4 10261592
18:00+17всв875513 0.0 10261582
21:00+17всв775693 0.0 10271425
30 сентября, чт
чт3000:00+17всв6656100 0.0 10271248
03:00+17всв776090 0.1 10261174
06:00+17всв885975 0.1 10261256
09:00+17всв885786 0.1 10271524
12:00+17всв886185 0.1 10281370
15:00+17всв886191 0.3 10271456
18:00+17всв996079 0.1 10271543
21:00+17всв885810 0.1 10281597
1 октября, пт
пт100:00+17всв785691 0.0 10281563
03:00+17всв986189 0.1 10271289
06:00+16всв896216 0.0 10271356
09:00+16всв9106155 0.1 10281646
12:00+17всв996098 0.0 10281515
15:00+17всв10106110 0.0 10271475
18:00+16всв9106276 0.0 10271417
21:00+17всв9105894 0.0 10261416